Location: *
(37.5724°S, 58.0067°E)
Time: 10:51:36
(UTC+00:00)

CZ-2C R/B - Pass Details

Date: 26 September 2020
Orbit: 704 x 908 km, 98.1° (Epoch: 29 October)

Event Time Altitude Azimuth Distance (km) Brightness Sun altitude
Rises 15:52:22 0° 168° (SSE) 3,136 6.3 -21.0°
Reaches altitude 10° 15:54:37 10° 167° (SSE) 2,218 5.5 -21.4°
Maximum altitude 15:59:28 89° 81° (E) 739 2.8 -22.3°
Drops below altitude 10° 16:04:27 10° 347° (NNW) 2,267 5.3 -23.3°
Sets 16:06:46 0° 346° (NNW) 3,210 6.1 -23.7°
